Weather History for Lac la Martre, NT

Change the Weather History Date:

Friday, October 21, 2011

  Actual Average Record
Temperature  
Mean Temperature 18 °F -  
Max Temperature 22 °F - - ()
Min Temperature 14 °F - - ()
Degree Days  
Heating Degree Days 47    
Moisture  
Dew Point 20 °F    
Average Humidity 93    
Maximum Humidity 100    
Minimum Humidity 85    
Precipitation  
Precipitation 0.00 in - - ()
Sea Level Pressure  
Sea Level Pressure 29.91 in    
Wind  
Wind Speed 5 mph ()    
Max Wind Speed 7 mph    
Max Gust Speed -    
T = Trace of Precipitation, MM = Missing Value Source: Averaged Metar Reports

Daily Weather History Graph

Daily Weather History Graph

Search for Another Location

Airport:

Trip Planner

Search our weather history database for the weather conditions in past years. The results will help you decide how hot, cold, wet, or windy it might be!

Date:

Astronomy

Oct. 21, 2011 Rise Set
Actual Time 8:53 AM MDT 6:12 PM MDT
Civil Twilight 8:05 AM MDT 7:00 PM MDT
Nautical Twilight 7:11 AM MDT 7:54 PM MDT
Astronomical Twilight 6:18 AM MDT 8:47 PM MDT
Moon 12:53 AM MDT (10/21) 4:37 PM MDT (10/21)
Length of Visible Light 10h 55m
Length of Day
9h 19m
Waning Crescent, 33% of the Moon is Illuminated
Oct 21
Waning Crescent
Oct 26
New
Nov 2
First Quarter
Nov 10
Full
Nov 18
Last Quarter

Hourly Weather History & Observations

Time (MDT) Temp. Windchill Dew Point Humidity Pressure Visibility Wind Dir Wind Speed Gust Speed Precip Events Conditions
12:00 AM 22 °F - 20 °F 91% 29.88 in - North 5.8 mph - -  
12:00 AM 22.1 °F 14.7 °F 20.5 °F 93% 29.88 in - North 5.8 mph - N/A   Unknown
1:00 AM 21.9 °F 13.4 °F 20.7 °F 95% 29.88 in - North 6.9 mph - N/A   Unknown
2:00 AM 22.5 °F 14.1 °F 20.7 °F 93% 29.89 in - North 6.9 mph - N/A   Unknown
3:00 AM 22.8 °F 16.7 °F 21.6 °F 95% 29.90 in - NNE 4.6 mph - N/A   Unknown
4:00 AM 22.3 °F 16.1 °F 20.7 °F 93% 29.90 in - North 4.6 mph - N/A   Unknown
5:00 AM 21.7 °F 15.5 °F 21.2 °F 98% 29.91 in - NNE 4.6 mph - N/A   Unknown
6:00 AM 21 °F - 21 °F 100% 29.91 in - North 3.5 mph - -  
6:00 AM 21.4 °F 16.6 °F 21.0 °F 99% 29.91 in - North 3.5 mph - N/A   Unknown
7:00 AM 21.7 °F 14.3 °F 20.8 °F 96% 29.91 in - NNE 5.8 mph - N/A   Unknown
8:00 AM 21.2 °F 12.6 °F 19.8 °F 94% 29.92 in - NNE 6.9 mph - N/A   Unknown
9:00 AM 20.8 °F 12.1 °F 19.4 °F 94% 29.92 in - NNE 6.9 mph - N/A   Unknown
10:00 AM 21.6 °F 15.3 °F 19.8 °F 93% 29.93 in - NNE 4.6 mph - N/A   Unknown
11:00 AM 21.7 °F 15.5 °F 19.4 °F 91% 29.93 in - NE 4.6 mph - N/A   Unknown
12:00 PM 21.9 °F 15.7 °F 19.6 °F 91% 29.94 in - North 4.6 mph - N/A   Unknown
1:00 PM 22.5 °F 16.3 °F 19.6 °F 89% 29.93 in - NE 4.6 mph - N/A   Unknown
2:00 PM 22.8 °F 18.2 °F 19.9 °F 89% 29.93 in - East 3.5 mph - N/A   Unknown
3:00 PM 22.5 °F - 20.1 °F 91% 29.93 in - ESE 2.3 mph - N/A   Unknown
4:00 PM 22.5 °F 16.3 °F 20.1 °F 91% 29.92 in - ESE 4.6 mph - N/A   Unknown
5:00 PM 22.5 °F 15.1 °F 20.3 °F 91% 29.92 in - East 5.8 mph - N/A   Unknown
6:00 PM 22 °F - 19 °F 85% 29.92 in - ESE 4.6 mph - -  
6:00 PM 21.6 °F 15.3 °F 19.4 °F 91% 29.92 in - ESE 4.6 mph - N/A   Unknown
7:00 PM 19.0 °F 13.9 °F 17.4 °F 93% 29.90 in - ESE 3.5 mph - N/A   Unknown
8:00 PM 16.0 °F 10.4 °F 13.5 °F 90% 29.91 in - East 3.5 mph - N/A   Unknown
9:00 PM 14.5 °F 7.1 °F 14.4 °F 99% 29.90 in - East 4.6 mph - N/A   Unknown
10:00 PM 20.7 °F 13.0 °F 18.9 °F 93% 29.91 in - ESE 5.8 mph - N/A   Unknown
11:00 PM 20.7 °F 11.9 °F 19.2 °F 94% 29.91 in - SE 6.9 mph - N/A   Unknown